Location: Bouchavesnes-Bergen
(49.9859°N, 2.9203°E)
Time: 03:44:12
(UTC+00:00)

Cosmos 1980 - Pass Details

Date: 09 March 2021
Orbit: 839 x 848 km, 71.0° (Epoch: 16 April)

Event Time Altitude Azimuth Distance (km) Brightness Sun altitude
Rises 04:43:28 0° 331° (NNW) 3,410 6.7 -15.4°
Reaches altitude 10° 04:45:55 10° 332° (NNW) 2,472 6.0 -15.0°
Maximum altitude 04:51:37 80° 61° (ENE) 862 3.8 -14.1°
Drops below altitude 10° 04:57:17 10° 148° (SSE) 2,463 6.4 -13.2°
Sets 04:59:43 0° 150° (SSE) 3,395 7.1 -12.9°
